Location: Bovenkerk
(52.2915°N, 4.8336°E)
Time: 23:16:34
(UTC+00:00)

STARLINK-1203 - Pass Details

Date: 09 April 2020
Orbit: 559 x 560 km, 53.0° (Epoch: 27 May)

Event Time Altitude Azimuth Distance (km) Brightness Sun altitude
Rises 19:12:47 0° 284° (WNW) 2,749 9.4 -7.1°
Reaches altitude 10° 19:15:02 10° 283° (WNW) 1,852 8.0 -7.4°
Maximum altitude 19:19:14 76° 199° (SSW) 581 3.7 -8.0°
Enters shadow 19:23:13 11° 113° (ESE) 1,761 5.5 -8.6°
